Theta_e
312 313 313 313 313 313 313 312 313 313 314 315 315 315 314 314 314 310 303 309 312 325 325 311 309 319 322 319 319 318 306 303 304 302 303 309 310 315 319 319 320 322 324 325 332
312 313 313 313 313 313 313 313 313 313 314 314 315 314 314 314 310 305 313 316 319 323 312 307 304 311 314 316 317 313 307 307 310 309 306 309 311 313 315 317 318 320 324 326 329
312 312 312 312 313 312 312 313 313 314 314 314 314 314 314 314 302 306 321 316 318 318 311 310 307 307 309 313 315 314 308 312 312 312 310 309 310 314 314 314 319 319 323 325 326
312 312 312 312 312 312 312 313 313 314 314 314 314 314 313 309 293 309 316 315 317 312 310 309 307 304 304 306 312 309 314 314 314 314 312 309 313 311 312 314 321 321 324 325 325
311 311 312 311 312 312 312 313 314 314 314 313 314 314 311 302 299 306 313 316 312 309 303 303 305 303 301 305 308 308 310 313 315 315 314 314 312 313 313 317 319 321 322 323 325
311 311 311 311 311 312 313 313 314 314 314 315 315 312 307 297 307 310 311 312 310 308 305 304 303 308 303 303 305 308 309 310 311 313 314 311 312 315 317 320 320 322 322 324 323
310 310 310 311 311 311 312 313 313 314 315 315 315 311 305 300 310 313 312 310 311 309 305 306 306 302 306 303 306 306 304 307 310 311 309 314 309 311 317 320 320 320 321 322 323
311 310 309 310 310 311 312 313 312 314 316 316 314 310 301 309 313 312 311 309 310 311 308 309 308 303 301 304 304 301 302 298 306 309 311 309 304 313 318 317 318 319 320 320 323
310 310 309 309 310 310 311 312 313 315 315 315 312 307 298 310 305 309 310 306 308 308 308 308 305 301 299 296 296 299 294 298 301 308 308 307 304 312 317 317 317 318 319 320 322
309 309 308 309 309 310 310 312 313 316 314 313 311 303 303 299 306 307 310 308 304 304 303 302 301 297 296 293 288 293 295 297 299 304 306 303 305 311 314 315 315 317 318 319 321
309 309 308 308 309 310 311 310 307 303 305 299 299 299 300 305 308 305 308 305 304 302 295 299 294 291 294 295 295 296 296 297 300 305 305 303 304 307 311 312 314 315 317 319 319
310 309 308 308 309 309 311 304 303 305 297 303 302 302 304 305 298 302 307 300 299 295 298 295 291 296 297 295 294 294 294 295 300 303 303 303 303 307 310 311 313 315 316 317 319
309 308 308 308 309 310 308 306 310 309 298 297 300 300 300 303 298 299 303 302 297 295 295 292 294 297 295 293 291 293 293 295 296 301 303 302 300 304 308 311 313 314 316 316 317
309 308 309 309 306 309 307 309 311 310 293 292 296 299 301 302 297 303 305 301 297 294 295 294 297 294 293 291 292 288 295 296 296 296 293 301 291 301 305 307 309 311 313 314 316
309 308 308 306 309 308 308 312 311 306 283 293 295 304 302 297 298 299 305 302 295 295 296 292 293 292 290 291 294 291 295 296 296 295 296 297 294 299 304 303 307 310 312 313 315
309 308 307 308 312 310 312 311 307 291 280 290 295 294 295 296 296 298 298 303 303 297 297 295 299 295 293 294 295 296 293 295 296 294 288 294 294 295 299 303 306 309 310 311 312
308 307 308 311 307 313 312 305 291 285 292 289 290 294 293 292 293 294 293 293 291 286 288 292 293 296 295 291 294 294 290 284 284 286 286 295 293 296 303 304 306 307 307 310 312
307 304 307 313 315 312 308 296 284 288 289 294 292 293 290 292 292 293 292 290 294 293 288 286 283 292 295 293 290 291 290 284 280 283 287 294 290 295 304 307 308 308 308 310 314
305 313 313 314 314 311 301 290 289 289 291 291 292 289 289 291 291 292 291 290 292 294 286 286 285 293 296 295 294 290 286 293 287 290 288 291 295 300 303 304 306 306 307 310 316
307 310 310 312 314 308 297 288 291 294 294 293 287 289 286 289 289 290 289 292 291 295 296 291 285 292 293 296 296 292 295 287 289 280 281 289 291 293 299 300 304 305 306 309 314
307 303 308 311 311 302 294 292 293 296 296 292 290 288 289 288 289 288 288 292 293 294 296 294 289 287 292 289 287 290 289 290 290 289 284 284 290 301 302 303 304 306 307 309 311
304 299 309 309 297 299 292 292 293 294 297 294 295 292 290 290 289 289 288 291 296 295 291 294 291 286 288 293 294 293 291 292 284 285 289 290 292 303 305 305 306 306 308 310 311
298 298 308 306 293 291 293 292 294 293 293 293 292 293 294 290 286 290 291 295 296 294 292 293 289 284 285 291 294 290 290 293 293 292 288 286 291 303 303 303 304 305 308 309 310
299 294 301 300 300 292 290 290 290 295 294 294 294 295 292 290 291 288 289 293 295 295 297 296 291 287 283 286 290 287 290 292 291 287 288 290 292 299 301 301 303 305 308 308 309
299 295 296 292 295 293 293 291 289 289 295 295 292 291 290 286 290 289 291 292 294 296 296 293 286 289 290 291 290 289 289 290 290 291 287 291 292 296 300 301 303 305 307 306 307
296 294 297 292 294 290 291 291 289 290 291 290 291 292 291 288 289 286 289 290 290 295 293 295 287 290 287 290 290 288 290 291 291 291 291 292 292 299 301 302 302 303 304 305 307
302 296 293 293 291 288 290 290 290 291 293 294 293 291 292 293 295 296 296 295 293 291 291 290 290 286 284 288 288 285 289 290 291 293 292 289 295 300 300 301 302 303 304 305 306
Wind_Speed
15 15 15 16 16 15 15 14 14 15 15 16 16 17 18 18 21 13 8 9 7 14 13 10 9 9 12 16 16 13 14 17 21 17 15 10 16 12 4 9 5 3 3 5 3
16 16 16 16 16 16 16 16 15 14 14 14 15 16 17 17 17 0 7 5 9 10 8 10 12 11 13 17 13 17 17 25 17 12 12 18 16 14 7 13 12 8 9 6 7
16 16 17 17 18 17 17 16 15 14 13 13 13 14 16 17 8 6 10 8 13 17 5 7 11 14 19 16 23 23 26 21 21 13 14 19 19 17 15 17 14 11 12 5 2
17 17 18 18 19 19 18 18 16 15 15 14 13 13 13 9 4 5 7 9 13 9 6 6 7 18 19 27 22 27 25 27 23 15 14 22 20 24 23 21 19 6 9 11 12
17 17 18 18 19 19 19 18 17 15 14 14 12 11 10 7 5 5 6 7 3 5 5 8 11 14 26 20 26 30 30 23 22 21 19 17 25 23 24 23 20 19 18 18 17
18 19 19 20 20 21 20 19 17 14 12 11 9 7 6 2 3 3 8 8 4 7 4 7 9 11 18 25 27 26 27 30 24 20 21 24 25 22 22 22 22 21 22 21 17
18 19 19 19 20 20 20 19 17 16 10 8 5 6 5 5 5 8 7 8 7 6 9 5 11 15 8 17 23 27 29 25 23 29 28 15 28 38 26 26 23 20 19 19 19
18 18 20 20 21 22 22 21 21 14 6 6 6 4 5 1 7 9 8 10 4 7 9 10 8 16 20 18 22 21 25 26 32 24 28 21 30 33 26 25 28 26 22 21 20
19 19 21 21 21 22 23 24 21 2 5 8 7 6 2 5 7 12 5 11 12 11 6 9 10 15 15 21 20 23 25 32 32 32 24 25 35 35 27 21 22 21 21 20 18
20 19 20 20 20 21 23 22 5 11 6 6 4 7 5 9 13 15 9 8 7 9 11 10 10 15 17 19 26 26 31 30 30 27 26 26 34 26 21 19 24 23 22 22 20
21 20 20 20 20 18 17 6 6 8 8 10 9 5 8 8 15 8 9 7 8 9 11 13 16 18 20 22 30 28 31 31 27 25 26 32 33 31 27 25 21 19 18 17 18
22 22 21 19 19 20 10 5 6 6 9 7 11 10 11 5 9 10 1 7 7 14 15 13 20 21 22 22 27 29 32 33 20 21 26 26 33 29 30 30 28 26 24 23 22
22 22 20 17 16 8 4 6 4 7 7 4 3 6 4 6 11 11 5 10 14 20 19 21 24 20 16 18 23 27 27 28 27 19 17 22 30 31 29 28 25 21 21 21 21
24 23 18 14 9 2 2 4 6 5 7 6 5 3 7 11 12 9 2 9 13 17 16 16 16 21 20 22 21 27 28 26 27 18 18 21 22 26 26 26 27 25 22 21 20
25 23 16 7 3 1 5 4 3 6 6 2 3 5 10 6 9 5 4 7 16 16 11 18 17 14 18 23 24 24 25 23 27 25 21 22 15 15 16 19 19 18 19 19 18
26 23 7 4 3 4 4 4 6 8 0 2 2 9 11 8 8 5 11 11 14 14 17 22 19 12 16 21 18 17 23 18 20 21 22 28 22 14 17 21 18 17 17 16 17
27 19 6 2 5 3 4 5 6 7 3 2 7 12 15 7 9 10 16 10 5 9 14 12 19 18 14 23 13 19 17 11 15 17 18 28 25 17 7 8 11 11 3 6 8
26 9 5 2 4 5 4 5 5 5 5 8 10 16 7 9 8 15 14 13 2 7 10 10 8 13 18 21 15 20 18 13 16 18 16 18 14 17 19 24 13 7 1 2 6
24 3 3 4 3 5 8 4 6 6 5 9 15 6 2 6 9 13 14 10 4 7 8 7 4 4 11 18 23 18 20 20 25 19 15 18 20 22 8 10 10 8 3 6 9
6 4 3 6 4 7 5 4 4 3 7 8 9 3 11 15 12 13 10 2 5 9 12 5 11 7 5 16 19 21 14 18 8 18 17 14 18 13 23 24 19 13 5 7 11
5 4 6 7 4 4 3 4 6 4 5 6 11 14 14 13 10 13 7 12 2 13 14 12 7 2 8 7 4 13 14 11 15 16 11 14 15 14 14 12 12 11 7 10 13
4 3 5 6 3 1 4 7 4 5 4 9 9 9 9 10 13 14 12 8 14 14 17 7 8 11 12 7 6 7 10 13 10 17 14 11 7 5 16 15 9 7 8 13 14
6 3 3 5 2 4 4 7 5 7 6 5 6 7 10 12 7 8 12 12 14 15 5 10 5 10 3 8 9 9 9 15 13 9 15 15 4 11 12 7 4 9 11 13 15
5 3 1 3 1 6 8 2 5 4 10 5 12 13 11 12 12 11 16 10 10 14 15 9 12 15 14 14 8 8 11 9 12 13 14 16 18 17 15 9 12 14 14 17 17
4 2 4 3 1 8 9 5 8 6 4 10 6 8 11 8 19 21 13 18 19 18 19 7 12 16 16 15 14 16 17 17 19 18 18 18 18 18 19 18 17 18 18 21 17
5 5 3 5 6 7 2 2 6 4 10 10 12 13 14 17 18 24 20 16 7 11 9 7 6 11 15 14 15 19 21 23 21 21 19 21 24 23 22 22 21 21 19 17 16
3 2 2 6 4 4 3 7 12 15 11 8 12 16 18 18 16 22 21 20 17 10 10 6 6 5 12 5 11 15 19 19 19 20 17 20 17 17 19 20 19 21 18 16 17
Wind_Direction
349 346 344 341 339 336 336 334 332 333 330 328 326 322 318 321 307 270 276 20 316 310 298 279 249 212 223 226 228 227 241 245 238 225 246 263 255 246 268 254 212 339 68 58 154
347 343 339 336 333 332 331 329 327 328 327 328 325 318 317 321 305 33 69 12 341 324 297 256 234 205 218 218 212 218 227 242 249 253 229 239 243 237 235 223 233 215 155 92 110
342 339 337 335 333 332 329 325 322 319 321 321 315 309 312 311 262 90 107 18 355 325 296 298 260 239 225 225 218 222 242 242 239 242 250 251 247 238 236 239 231 223 186 239 314
342 339 338 335 333 330 328 324 321 318 319 317 309 308 311 285 342 92 5 342 327 299 290 280 231 227 230 230 226 239 247 247 251 228 241 250 259 253 247 245 251 227 234 270 273
342 339 336 333 330 327 325 320 318 314 311 305 303 314 295 254 51 115 317 335 342 331 272 273 257 232 238 238 236 236 241 251 244 248 244 257 253 255 253 247 252 254 262 263 272
343 340 337 334 331 326 323 318 316 314 301 282 272 278 289 261 16 313 313 304 323 327 332 267 259 271 276 255 247 240 244 245 251 248 241 247 254 248 244 250 254 253 254 259 260
342 340 336 334 329 323 320 314 315 313 290 278 211 249 270 10 328 319 304 297 307 291 292 296 270 249 273 257 255 257 260 262 240 233 244 246 260 246 245 255 251 248 248 254 257
339 339 338 336 331 326 323 319 317 314 286 185 185 258 288 199 324 291 324 313 243 269 271 288 250 254 252 272 283 258 243 245 239 231 232 223 257 254 224 232 246 245 247 247 251
338 337 336 334 331 326 320 318 310 290 132 146 207 265 127 152 312 342 327 313 320 289 255 274 244 247 236 236 250 239 239 231 239 227 223 212 243 250 255 236 231 247 247 247 251
337 336 334 330 327 322 317 305 128 145 173 210 247 236 219 344 340 323 305 301 280 300 260 243 246 251 230 230 232 231 229 237 243 224 227 221 243 251 243 237 243 242 248 252 255
333 333 332 328 323 321 314 204 227 179 212 297 333 295 303 316 301 285 292 270 248 247 265 254 247 254 261 252 251 261 267 250 245 248 227 221 239 244 245 248 243 244 241 240 248
334 333 329 324 319 318 278 23 42 350 294 274 265 259 273 283 292 313 230 274 277 288 294 255 249 254 271 274 257 245 252 257 262 269 243 233 237 243 245 246 248 250 251 257 261
332 332 326 320 315 283 347 44 46 330 269 324 228 266 308 234 287 298 259 300 288 290 280 268 264 269 266 259 254 253 252 247 252 266 243 249 247 245 239 243 251 258 258 262 267
334 333 328 316 276 4 101 91 320 296 270 138 185 169 272 307 254 303 260 299 288 295 299 277 280 261 254 254 251 248 245 244 253 236 225 216 249 233 230 242 243 245 250 253 256
335 333 330 289 14 277 58 320 331 221 275 96 156 3 300 282 300 133 245 282 292 307 277 268 287 252 252 254 247 253 241 241 230 246 250 244 240 252 254 244 240 242 251 253 255
336 334 316 177 203 38 315 298 206 229 274 159 259 322 315 313 312 295 321 230 288 298 270 269 265 259 268 303 239 259 225 238 243 229 233 236 248 247 245 245 244 236 248 257 258
335 330 253 279 22 315 301 207 244 272 103 53 326 323 315 311 317 329 325 317 1 331 355 322 252 225 251 278 237 269 210 204 215 216 222 221 231 238 213 9 261 244 248 248 260
331 309 168 328 312 294 254 230 279 63 337 342 311 306 294 358 337 333 315 307 150 313 296 338 311 275 197 245 268 205 229 229 218 210 215 229 223 226 239 250 263 268 136 252 343
314 199 205 55 322 279 265 235 351 4 354 322 308 292 322 302 326 316 320 321 325 25 338 307 305 278 273 218 254 241 234 237 247 264 248 206 212 258 220 210 207 166 152 22 0
313 257 93 336 299 264 265 307 301 316 309 303 306 316 322 324 321 329 319 97 324 323 338 291 293 271 270 304 249 257 259 232 223 232 222 217 210 225 208 223 228 235 75 13 2
272 244 55 337 257 265 282 336 303 324 311 302 310 296 300 315 306 300 284 293 271 322 318 306 277 271 237 239 285 221 236 253 256 228 244 226 208 201 147 117 109 99 56 14 13
308 254 31 321 256 293 300 344 346 285 272 287 282 289 295 306 297 286 278 275 327 319 306 4 296 290 285 170 180 260 282 264 236 223 250 298 92 134 119 126 114 71 23 7 358
328 310 59 292 353 323 338 300 267 291 309 295 284 292 299 298 297 284 280 304 301 301 329 1 284 309 246 176 191 230 245 279 279 307 259 233 166 140 152 168 44 2 353 345 343
313 323 72 50 66 330 342 310 296 281 280 264 276 287 278 287 280 271 286 289 285 293 310 299 278 266 281 307 312 290 281 243 264 270 243 249 258 182 202 295 318 321 321 321 325
351 48 6 324 327 334 302 280 299 319 288 306 279 265 297 286 305 286 300 312 294 286 268 254 267 267 266 276 278 276 273 265 252 255 265 270 266 267 280 296 308 303 299 299 304
331 342 330 285 291 324 238 290 301 299 312 291 276 299 308 291 285 290 301 292 269 291 289 235 262 281 280 267 262 271 262 251 247 246 253 258 262 269 274 277 279 284 289 299 308
65 14 300 304 300 298 321 335 323 323 299 260 293 294 290 298 309 290 282 272 256 259 261 278 278 286 265 323 301 271 253 252 253 253 259 259 267 276 277 277 272 277 284 294 296